Theta_e
323 323 322 322 324 326 329 331 335 341 346 348 350 350 347 347 350 353 354 353 355 357 355 355 355 355 353 352 353 354 352 348 346 345 343 343 342 340 341 341 340 341 341 341 340 340 340 340 344 347 348 349 348 349 350 349 349 351 352 350 350 351 347 345 347 349 351 353 352 351 352 352 352 351 349 348 348 348 349 346 343 343 342 342 344 343
322 322 321 323 325 327 329 330 334 338 341 346 346 347 349 349 351 353 355 354 354 355 354 355 355 355 353 352 352 355 353 349 346 344 344 344 343 340 341 341 341 341 341 341 341 340 340 340 342 346 349 349 350 350 350 350 350 352 353 351 352 352 348 349 351 352 352 352 351 350 350 351 352 351 349 349 348 349 350 346 343 344 343 343 344 344
320 321 322 325 326 327 328 329 335 337 338 344 345 347 348 349 353 353 354 353 352 355 356 354 356 357 355 352 352 353 353 350 347 346 345 344 344 342 341 342 341 341 342 341 341 341 341 340 340 344 348 350 351 351 351 351 350 352 353 352 354 352 349 351 352 352 352 351 350 349 349 350 351 351 350 349 348 350 351 345 342 344 343 344 345 344
318 320 323 325 326 327 327 329 335 336 337 344 344 344 346 351 354 352 354 356 353 354 356 353 356 358 355 355 354 351 352 353 350 349 348 344 345 344 341 343 342 341 342 341 341 341 341 341 340 343 348 350 351 351 351 352 351 352 352 351 353 352 351 351 350 351 351 351 351 349 349 349 350 351 350 351 350 351 351 347 345 345 343 346 347 346
320 322 325 324 325 326 326 329 336 335 334 341 343 344 348 353 353 352 356 356 353 353 353 353 355 356 355 356 357 353 352 352 350 350 350 347 344 345 343 343 342 341 342 342 341 342 342 342 340 342 347 350 352 351 351 352 351 352 353 351 352 353 352 351 350 351 350 350 351 351 350 349 350 352 351 352 351 351 351 350 350 346 341 347 348 346
321 324 325 324 325 326 326 329 335 336 332 336 342 344 351 355 353 353 354 353 352 353 353 353 352 353 355 358 359 355 355 353 352 351 350 349 346 345 344 343 343 343 343 342 342 342 342 343 341 341 347 350 351 351 351 352 351 353 353 350 350 352 352 350 349 349 348 347 351 352 352 351 352 352 351 351 350 350 351 352 353 348 343 349 350 346
321 324 325 324 325 325 326 330 335 337 330 331 341 344 349 355 353 352 353 350 348 349 353 354 353 352 354 357 359 357 357 356 354 352 350 352 351 347 344 344 344 343 343 343 342 342 342 344 342 342 347 349 350 351 351 352 350 354 354 349 348 350 351 349 346 346 346 345 349 351 351 352 352 352 352 352 351 350 351 352 353 350 347 350 351 350
321 323 323 325 327 325 326 329 334 337 330 328 339 345 347 351 353 351 351 350 349 348 351 353 353 352 350 352 356 357 357 358 357 354 352 352 352 350 347 345 345 344 344 343 343 343 343 345 344 344 347 348 349 350 350 351 351 353 354 349 347 348 351 349 343 344 346 344 346 347 350 352 352 353 353 352 351 350 351 352 352 352 350 349 350 351
322 322 323 326 327 326 328 331 333 335 331 329 333 341 347 349 349 350 350 349 349 347 346 349 350 349 347 350 354 357 357 359 359 356 355 353 351 351 349 347 346 345 344 343 343 343 344 345 345 346 347 347 348 349 349 350 351 354 355 351 348 348 352 349 341 342 345 345 345 346 351 352 350 352 353 353 353 352 353 353 353 353 351 349 349 349
322 323 326 327 327 328 329 331 332 333 332 331 329 332 341 346 346 348 350 346 344 344 342 345 346 345 347 351 353 356 357 357 358 357 356 354 351 351 349 348 348 346 345 345 344 344 344 346 346 347 347 347 347 348 348 349 351 355 355 353 351 348 350 348 341 340 344 346 346 347 352 352 351 352 350 351 353 353 354 353 353 353 351 350 349 347
323 324 327 327 327 328 328 330 331 333 332 330 331 330 331 342 346 346 347 344 343 343 339 340 345 343 346 351 352 355 356 354 356 358 357 355 354 354 351 350 350 349 348 346 345 344 344 345 346 347 347 346 347 348 348 349 351 355 355 354 352 348 349 348 341 340 343 347 346 347 350 349 351 352 348 349 350 349 350 351 351 351 350 351 350 349
324 323 326 326 328 328 327 329 331 332 332 329 331 330 327 330 333 338 345 346 343 342 339 339 344 342 342 347 351 354 355 351 353 356 356 355 355 355 354 351 350 350 349 347 346 345 345 346 346 347 348 346 346 347 348 349 351 355 356 354 350 349 352 350 341 340 341 344 345 346 348 347 349 351 349 349 348 346 347 349 349 347 349 353 353 352
322 325 326 326 327 327 326 327 329 330 331 331 330 327 325 328 333 338 341 341 340 342 344 343 346 346 344 346 351 353 351 351 351 352 354 354 355 355 354 352 351 350 350 349 347 345 345 346 346 348 348 346 347 348 348 349 351 354 354 353 350 348 352 349 342 341 340 341 344 344 346 346 346 349 349 348 348 348 348 350 350 346 348 352 352 353
318 323 326 326 326 327 327 325 326 328 329 330 328 325 324 329 335 336 334 336 339 341 345 347 347 348 349 349 350 350 349 351 351 351 354 354 354 355 355 353 352 351 351 349 347 346 346 347 347 348 348 347 348 349 349 349 351 353 353 353 350 348 351 349 343 341 340 341 343 344 345 346 345 346 346 345 348 352 351 351 351 348 347 347 348 351
315 318 323 325 325 326 328 326 327 329 329 330 331 329 326 326 332 333 332 336 340 339 343 347 345 347 353 353 351 351 348 351 350 351 354 354 353 354 355 355 353 352 352 350 349 348 347 347 347 347 348 349 348 348 349 349 350 352 353 353 350 348 349 349 346 343 340 342 343 343 346 346 345 346 345 347 350 352 352 352 352 351 351 349 349 352
315 317 323 326 326 326 327 328 330 330 327 331 332 329 327 327 330 330 332 338 338 335 341 345 343 349 357 353 349 350 350 350 350 352 353 353 354 355 356 356 353 352 352 351 350 349 348 348 348 348 348 349 349 348 348 349 350 352 353 353 350 348 347 347 347 346 344 344 344 343 346 347 346 346 347 350 353 353 353 353 352 353 353 351 351 352
316 318 324 327 326 326 327 327 329 329 326 328 328 325 328 333 332 327 327 333 331 329 337 341 340 345 349 347 349 349 349 350 349 351 353 353 355 356 356 355 354 352 351 351 351 350 349 349 348 348 349 350 349 348 348 348 350 352 353 354 350 348 348 348 348 349 347 348 348 345 346 348 347 346 347 349 352 354 355 354 353 353 353 352 353 353
320 319 324 326 325 326 328 326 327 330 329 326 325 326 331 332 332 330 326 327 326 326 334 336 336 341 342 343 348 349 350 353 350 350 353 354 356 356 355 355 355 353 351 351 351 350 350 350 349 349 350 350 349 349 349 348 349 351 352 354 352 349 351 349 348 351 349 349 352 349 347 349 349 349 348 348 351 353 353 355 354 353 352 352 353 352
322 319 323 326 326 326 327 325 324 327 329 327 327 329 331 327 327 329 327 327 327 328 332 329 332 343 342 340 346 350 352 353 351 350 353 353 355 356 354 355 355 354 353 352 351 350 351 350 350 350 350 351 350 349 349 348 350 351 352 354 354 352 352 351 351 353 352 351 354 353 350 351 352 352 351 350 350 350 351 353 353 351 352 352 352 351
325 320 319 325 327 326 326 324 321 322 326 328 328 328 329 327 327 329 328 327 328 331 336 333 332 340 343 342 349 352 352 352 350 350 351 353 354 355 356 356 356 355 354 353 351 350 350 350 350 351 350 351 350 350 351 350 350 352 352 353 354 354 354 353 352 353 353 353 354 354 352 351 352 353 353 352 351 350 351 352 351 350 351 352 352 351
325 322 319 324 325 323 323 323 322 322 323 324 324 324 325 326 328 330 329 327 328 332 337 339 337 338 341 347 353 351 351 352 350 350 353 354 355 355 356 356 356 356 354 354 353 351 351 351 351 351 351 351 351 351 351 352 352 352 353 353 353 352 353 352 351 350 352 352 352 353 353 351 351 352 353 353 352 351 351 351 351 352 352 352 352 352
324 323 320 321 321 319 322 325 326 325 325 325 324 323 325 325 325 326 326 326 326 329 331 334 336 339 344 351 351 347 350 351 351 353 355 355 356 355 354 355 356 357 356 354 354 353 351 350 351 351 352 352 352 352 352 352 352 353 353 352 352 351 350 349 349 348 349 350 350 351 353 353 352 352 352 352 353 352 352 351 352 352 352 352 352 352
324 324 322 320 321 322 324 326 326 325 326 326 326 327 327 326 325 321 321 323 324 327 327 325 331 340 346 350 350 348 349 350 351 353 353 354 355 353 354 356 356 356 356 354 352 352 350 349 351 352 352 352 351 352 353 352 352 352 352 353 353 351 350 349 348 347 348 349 350 351 352 353 354 353 353 352 351 351 351 351 352 353 352 352 352 352
324 324 322 320 323 325 326 327 326 325 326 324 324 328 326 325 327 324 324 326 324 324 325 324 330 341 347 350 352 350 350 350 350 351 352 353 354 354 355 356 355 354 354 354 353 351 351 350 352 352 351 351 352 351 352 353 353 352 351 354 354 352 351 350 349 348 348 348 349 350 351 352 353 353 352 352 351 350 349 349 350 351 351 351 351 352
323 323 322 320 321 322 322 323 323 322 323 323 323 326 326 326 327 326 325 327 325 324 325 323 326 337 345 350 351 349 350 351 349 351 353 354 354 354 355 354 354 353 352 354 354 352 352 352 352 352 352 352 351 350 349 351 354 354 352 353 354 352 351 353 352 350 349 349 349 350 350 350 351 351 351 350 351 350 348 347 347 347 349 350 350 350
324 325 325 323 320 320 320 321 321 321 321 322 323 324 326 326 325 324 322 322 323 324 324 323 327 339 349 352 349 347 349 350 349 351 353 354 354 354 354 352 353 352 351 354 355 353 353 353 352 352 352 351 351 350 349 350 352 354 352 351 352 352 353 355 354 352 350 350 349 349 349 350 350 350 349 349 350 349 347 347 346 345 346 347 348 348
325 326 326 326 324 323 323 326 328 325 321 320 320 322 325 324 325 325 319 320 323 321 323 332 339 343 347 350 349 347 347 347 347 349 351 353 354 353 352 351 352 351 350 352 354 353 353 352 352 352 352 351 351 350 350 350 350 352 352 351 353 355 356 355 354 353 352 351 350 349 349 349 350 350 350 349 349 348 347 346 346 345 344 345 346 348
323 324 326 328 326 326 327 328 329 327 323 321 319 321 324 324 326 323 318 322 327 321 327 343 348 340 342 349 350 347 347 347 346 347 348 351 352 353 352 351 351 350 348 350 352 352 351 350 351 353 352 352 353 352 351 351 350 350 351 352 352 352 353 352 352 352 351 350 350 351 350 349 350 351 351 350 350 349 346 344 345 345 344 343 344 345
323 323 325 326 325 326 327 327 328 327 325 326 324 322 323 324 324 322 319 326 325 323 334 348 345 341 344 347 348 347 348 348 348 348 349 350 351 352 351 352 352 351 351 351 350 349 349 349 349 351 348 349 353 354 353 353 352 350 349 351 351 349 348 347 347 348 348 345 346 349 349 347 350 352 352 351 351 351 349 344 342 343 344 345 344 344
323 323 325 325 324 325 327 326 327 327 325 326 325 324 324 324 324 323 322 326 325 329 344 350 346 347 348 346 348 350 350 351 351 351 350 349 349 351 351 352 352 351 352 353 351 350 349 349 349 349 348 347 349 350 349 351 353 352 351 353 353 351 351 350 347 345 345 345 345 347 346 346 349 352 352 351 351 351 350 345 341 341 342 344 345 345
323 323 326 326 323 324 327 327 326 326 325 324 326 329 331 331 333 332 327 325 325 329 342 349 349 350 350 348 351 351 350 351 351 350 350 349 347 348 350 350 350 351 352 353 352 352 352 351 350 350 350 349 347 346 346 348 350 350 350 351 351 351 352 354 353 352 349 348 347 347 348 347 348 349 349 350 351 350 349 347 344 343 342 342 344 345
324 324 327 327 323 322 325 328 329 328 326 326 328 333 336 336 337 338 336 335 334 333 337 343 345 347 349 350 351 351 351 351 350 350 350 348 346 346 347 348 348 349 351 351 351 352 351 352 351 350 351 350 349 348 348 349 349 349 348 348 348 348 349 350 351 351 351 351 351 351 351 351 350 349 348 349 350 349 348 346 345 345 344 343 344 345
324 324 326 327 324 323 324 327 328 329 329 328 329 332 336 339 339 338 339 340 340 339 338 339 342 347 348 347 348 349 349 349 350 351 350 348 346 345 345 345 346 347 349 349 351 351 350 351 351 350 350 351 351 351 350 351 352 352 351 350 349 349 348 347 347 347 347 349 351 352 353 352 352 351 349 348 348 348 348 346 345 344 344 344 345 346
323 323 325 327 324 323 326 327 326 330 332 331 332 333 335 338 339 339 340 340 341 343 342 342 345 346 346 345 346 347 347 348 348 348 348 348 346 343 343 343 344 347 348 348 349 349 349 349 348 348 348 348 348 349 350 351 352 352 352 352 351 350 350 349 349 348 347 347 348 350 350 350 351 351 350 348 347 347 346 344 344 344 343 343 343 345
323 324 325 327 325 323 326 326 326 330 332 331 331 333 334 335 336 337 339 340 340 341 341 343 345 345 345 346 345 345 344 346 346 344 344 344 343 342 342 344 346 347 347 347 346 346 346 346 346 346 345 344 343 345 347 348 349 350 350 350 350 350 350 350 349 349 350 349 350 350 350 350 351 351 351 350 348 347 346 345 345 345 344 343 343 344
322 325 326 326 326 325 326 327 328 330 330 329 331 332 333 334 335 336 339 339 338 339 339 341 342 344 345 345 344 343 342 343 344 343 342 342 343 343 345 346 347 345 345 345 344 344 344 343 343 343 342 342 342 342 344 346 346 347 347 347 347 348 348 349 348 349 349 350 349 350 350 351 351 351 351 351 351 350 350 349 348 346 345 345 346 346
321 325 327 329 329 326 325 328 330 330 330 331 332 330 331 333 334 336 338 338 337 338 338 338 340 342 343 342 342 342 340 340 341 342 343 344 344 344 345 346 345 344 343 343 342 342 342 341 341 341 341 341 342 341 342 343 343 344 345 345 345 345 345 345 346 346 347 348 349 349 349 349 350 350 350 350 351 351 351 350 349 349 349 348 348 348
321 325 327 328 330 327 325 326 328 329 331 332 331 329 329 330 331 334 335 334 337 339 337 336 337 340 341 341 342 341 339 339 339 339 341 342 342 343 343 343 342 342 341 341 341 341 341 340 341 341 340 340 340 339 340 340 340 341 342 342 342 342 342 343 343 343 344 345 346 346 346 346 347 348 348 349 349 349 349 349 349 349 350 350 349 350
322 327 326 325 326 326 326 327 327 329 333 333 332 329 327 328 330 330 330 330 333 338 337 337 337 338 338 338 340 341 340 338 337 336 337 338 340 340 339 339 339 339 339 339 339 338 339 339 340 340 340 338 335 333 333 335 336 337 338 339 339 338 339 340 340 340 342 342 342 342 343 344 344 344 344 344 345 345 344 346 348 349 349 349 349 350
322 325 324 323 323 324 326 328 330 331 332 332 330 329 329 329 328 327 329 330 332 334 337 338 340 340 338 336 336 337 339 339 337 335 335 336 338 338 337 337 337 337 337 337 336 336 336 336 336 336 335 333 330 327 325 326 328 328 329 332 334 335 336 337 338 339 339 340 341 341 340 340 340 341 341 341 342 341 340 341 343 345 346 346 347 348
322 324 323 322 322 323 324 327 331 332 331 328 329 330 330 331 329 327 329 332 332 333 335 337 340 340 340 340 338 337 338 338 337 336 336 336 337 338 338 337 336 336 336 334 333 333 333 332 330 328 326 325 324 323 321 319 318 318 319 323 326 328 330 333 334 334 335 337 338 337 336 337 338 338 338 337 335 335 337 338 340 341 343 344 345 346
322 323 325 325 325 327 328 328 331 332 330 327 329 331 331 333 331 329 330 331 332 334 334 335 338 339 340 341 340 339 338 336 336 336 336 335 336 337 338 337 336 335 334 332 332 331 330 328 327 325 323 322 322 319 315 313 313 313 313 315 317 319 322 325 326 326 326 327 328 329 329 331 332 332 333 331 329 329 332 334 335 338 339 338 339 342
323 323 324 326 327 329 329 329 329 330 330 328 330 332 332 333 332 331 330 331 333 334 334 335 336 337 338 339 339 338 337 336 335 335 334 334 335 336 336 336 335 335 334 332 331 330 329 329 328 326 326 326 324 319 314 312 312 312 314 316 316 313 313 314 314 315 315 316 317 320 322 323 323 323 324 325 325 327 329 330 331 333 331 330 332 337
324 325 325 325 327 328 328 328 328 329 329 328 330 332 332 331 331 331 330 331 333 333 333 334 336 336 337 338 338 337 337 336 335 334 334 334 333 334 335 335 334 334 333 332 331 330 330 329 328 327 326 323 318 314 313 312 311 311 312 315 314 311 310 311 312 311 310 312 313 314 314 316 317 318 318 316 316 319 322 324 328 329 327 326 328 331
324 327 327 326 328 330 328 328 328 328 327 327 328 329 329 329 329 329 329 330 332 333 333 334 335 336 337 337 337 336 336 336 335 334 334 333 333 333 334 334 335 334 333 331 331 330 329 328 328 328 327 320 312 309 310 310 309 309 310 310 310 311 314 318 317 312 308 309 311 314 316 317 315 313 313 313 314 313 313 316 320 324 328 330 329 329
324 324 327 327 327 328 327 327 327 327 327 327 327 327 327 327 328 328 328 329 330 331 333 333 333 333 336 337 337 336 335 335 335 334 334 333 333 333 333 333 334 333 332 331 330 330 328 328 327 327 325 319 315 312 310 309 308 308 306 305 305 307 310 312 311 308 306 306 307 312 318 319 314 311 311 315 319 318 314 315 317 318 324 329 328 326
321 321 325 326 325 326 326 326 327 326 325 326 326 326 326 326 326 327 327 327 328 329 331 332 332 332 333 334 336 336 335 335 334 333 333 333 333 332 332 332 332 332 332 331 330 329 327 326 327 326 325 324 323 318 310 307 307 308 311 312 309 306 306 308 310 309 309 310 309 309 311 312 314 317 318 319 322 322 318 318 320 319 318 321 321 320
320 320 322 325 325 326 327 327 326 326 326 326 326 326 325 325 325 326 327 327 327 327 328 328 329 331 332 333 334 334 335 335 334 333 332 332 332 332 332 332 331 331 331 330 329 328 326 325 326 325 324 324 322 315 308 306 308 312 318 319 314 307 308 315 321 320 319 318 317 315 314 313 316 320 320 318 321 323 322 321 323 322 318 316 315 315
321 321 323 325 326 327 327 325 325 325 325 327 328 327 326 326 325 325 326 326 326 326 327 327 327 328 329 331 332 333 333 334 334 334 333 332 332 333 333 332 331 331 331 329 328 327 326 325 324 322 319 318 316 312 310 309 308 310 313 313 309 306 308 314 320 324 324 323 320 319 320 320 318 317 319 320 321 321 321 321 322 321 318 315 313 314
322 322 324 324 325 326 325 325 325 326 326 327 327 326 326 326 326 326 326 326 325 326 327 327 327 327 327 328 329 332 333 333 334 334 333 332 332 332 333 333 332 332 331 329 328 328 326 325 323 320 317 317 316 314 312 310 312 314 314 309 307 309 307 309 315 320 322 322 321 318 319 321 318 312 312 319 322 320 317 317 318 317 315 312 310 310
324 325 325 325 325 326 326 325 325 327 328 327 326 325 325 326 326 326 325 325 325 325 326 327 327 327 326 326 327 329 331 332 332 332 333 333 332 332 332 332 332 333 331 330 329 329 327 326 324 321 317 317 317 315 313 314 318 321 318 311 309 310 309 311 318 322 322 321 316 310 311 315 314 308 308 312 315 314 311 310 310 310 309 308 306 305
Wind_Speed
11 7 8 8 9 11 10 13 10 5 8 12 8 4 4 4 3 4 6 9 11 7 4 6 9 12 13 11 13 17 18 18 20 18 19 20 21 21 20 21 21 20 20 19 19 19 17 18 17 16 17 16 16 16 17 17 16 17 16 16 15 12 12 14 14 14 13 11 13 13 11 13 12 8 9 9 8 7 6 6 7 8 8 9 9 8
10 7 9 10 12 13 11 13 10 6 7 10 8 4 4 3 4 5 6 9 8 4 4 6 10 12 11 11 13 15 14 16 21 20 19 20 20 20 20 22 22 19 20 21 20 19 18 18 18 17 17 17 18 18 17 17 17 16 16 17 16 13 13 14 13 13 12 11 12 13 12 13 13 10 8 7 8 8 7 7 7 8 8 8 8 7
8 8 11 12 12 13 13 12 8 8 8 7 7 5 4 2 5 4 5 8 4 1 6 8 8 8 5 6 9 12 12 12 17 19 20 22 20 20 20 21 23 21 20 22 21 20 19 19 19 18 18 18 18 18 18 17 17 16 16 17 16 14 14 14 14 13 12 11 10 11 12 11 11 10 8 7 8 8 7 7 7 7 7 7 7 7
7 8 12 14 12 12 14 12 8 8 7 7 7 4 5 4 4 2 5 8 3 1 5 7 4 3 3 3 0 7 8 3 5 8 12 20 21 19 21 22 22 22 22 22 22 21 20 20 20 19 19 18 18 19 18 18 18 17 17 18 16 15 14 14 15 14 12 12 10 9 10 10 10 10 9 8 7 7 7 7 7 7 7 7 6 7
7 8 13 15 13 12 14 11 7 7 5 7 9 6 7 7 3 1 5 6 3 1 5 7 4 1 2 2 2 5 3 1 4 2 8 16 23 19 19 22 21 22 23 23 23 22 22 21 20 20 20 19 19 19 19 19 18 17 18 18 17 16 15 14 15 16 14 13 12 11 12 14 13 11 10 9 8 9 9 7 6 7 8 7 6 7
8 10 14 15 14 13 12 8 6 5 6 5 9 10 13 11 6 4 8 7 2 1 6 7 3 1 4 5 5 6 5 3 5 4 10 14 20 21 20 22 22 21 22 23 23 23 22 22 21 20 20 20 19 19 19 19 18 17 18 19 18 17 15 13 14 16 15 15 14 12 12 14 12 11 10 8 8 10 9 8 7 7 8 7 6 6
7 12 10 10 15 15 11 7 7 7 8 3 10 14 14 14 12 9 10 6 2 2 6 7 2 2 4 7 7 7 7 7 5 7 11 11 11 19 21 22 23 22 22 23 23 23 23 22 22 21 21 21 20 20 19 19 18 18 19 18 18 18 15 14 14 14 14 15 14 12 10 11 11 11 11 9 9 8 8 9 8 6 7 7 6 6
10 15 10 9 14 12 9 7 9 11 7 2 11 17 17 16 15 14 10 5 3 4 5 6 2 2 4 8 10 9 9 9 8 8 11 11 11 17 20 22 24 23 23 24 23 24 24 23 23 22 21 21 20 20 20 19 19 19 19 18 18 18 16 14 14 14 14 14 14 13 11 10 11 11 10 11 11 9 8 10 9 6 6 6 6 6
12 13 7 7 9 6 7 8 11 13 6 4 6 10 17 18 15 13 9 4 4 5 5 7 5 2 3 6 10 10 9 10 12 11 11 13 15 17 19 21 24 24 24 24 24 24 24 24 23 22 22 21 20 20 20 19 20 20 20 19 18 18 18 15 14 14 14 13 14 13 12 11 11 11 10 11 11 9 8 10 9 7 6 7 7 6
8 5 3 4 6 4 7 10 12 13 6 4 5 5 10 18 15 12 9 4 5 4 4 10 10 4 2 5 8 8 9 11 12 11 11 15 20 21 22 22 24 25 25 25 25 24 24 24 24 23 22 21 20 20 20 20 21 21 20 20 19 19 18 17 15 15 14 13 13 13 13 12 10 10 10 10 10 9 9 9 8 7 7 7 7 6
7 6 8 6 7 8 11 11 8 9 5 3 2 6 6 11 13 11 7 5 4 3 4 10 13 8 2 3 8 8 10 13 12 10 11 16 20 23 25 25 24 25 26 26 25 25 24 24 24 23 23 22 21 21 20 20 21 21 21 21 20 19 18 16 15 16 16 14 14 13 14 13 10 10 11 11 10 10 10 10 9 8 6 5 5 5
10 8 8 5 10 11 13 11 7 10 9 3 3 7 6 6 6 4 4 4 3 3 3 7 14 12 4 2 8 11 11 13 14 13 14 18 21 24 27 25 25 26 26 26 26 26 25 25 25 24 24 23 21 22 22 21 21 21 22 21 20 20 19 17 16 16 17 16 15 14 14 14 11 10 11 10 9 9 10 10 9 8 8 7 6 5
10 7 7 4 11 12 13 10 8 6 8 6 5 8 6 4 2 2 3 3 3 1 1 2 9 9 5 3 8 15 13 12 17 17 18 22 23 25 26 25 26 27 27 27 26 27 27 27 27 25 25 25 23 23 22 22 22 22 22 22 21 21 20 18 17 17 17 16 15 14 14 14 12 11 11 10 8 8 9 10 8 8 10 9 7 7
8 5 6 6 8 12 15 8 8 5 7 8 7 7 6 3 3 5 5 3 2 2 3 3 4 2 3 4 10 17 17 14 18 20 22 26 27 27 27 25 26 27 27 28 27 28 28 27 27 26 26 25 24 23 22 23 24 22 22 23 22 21 20 18 17 17 17 16 15 13 13 14 13 13 12 10 8 8 9 9 7 7 8 7 7 9
8 7 10 11 7 11 14 9 7 7 7 8 8 7 7 5 4 4 2 1 3 2 5 2 2 2 2 3 9 9 13 16 20 21 21 24 27 29 28 24 25 27 28 28 28 29 29 29 28 27 27 26 24 24 23 23 24 24 23 24 23 22 21 18 17 17 17 16 15 13 13 13 13 12 11 10 9 8 9 8 8 8 7 6 8 9
9 7 11 16 12 12 13 12 10 8 7 8 8 7 7 5 4 4 3 6 5 2 5 4 4 2 2 2 6 6 4 8 16 20 20 22 25 27 28 26 25 27 28 28 29 29 29 29 28 28 28 27 25 25 24 24 24 24 23 24 23 23 21 19 18 17 16 16 15 14 13 12 11 11 11 11 10 9 9 9 9 9 8 8 8 8
5 8 7 16 14 13 15 15 12 9 5 4 7 9 7 5 4 5 3 8 8 5 3 4 4 4 4 3 2 2 5 4 8 17 20 23 26 27 29 28 26 27 29 27 29 30 30 30 28 28 29 27 26 25 25 25 25 25 24 23 23 23 22 20 19 18 17 16 16 15 14 13 12 12 12 13 13 12 11 10 9 8 9 9 7 7
3 10 5 12 11 11 16 16 14 13 9 3 5 7 7 5 3 4 4 5 7 5 3 4 4 4 3 2 4 4 1 4 5 13 18 21 25 27 28 29 27 26 28 28 29 29 29 30 29 28 29 28 27 26 25 26 26 25 23 23 23 23 23 22 20 19 18 17 17 16 15 15 14 13 12 13 14 13 13 11 10 9 10 9 7 6
3 8 2 10 11 10 13 12 11 14 15 9 4 3 5 6 3 3 3 4 5 4 2 4 5 3 2 2 5 5 3 7 10 13 16 19 22 25 27 28 26 23 22 24 28 28 28 30 30 29 29 28 27 26 26 25 26 25 23 23 23 22 23 22 20 19 18 18 17 16 16 16 16 14 12 12 11 12 13 12 10 10 9 8 8 8
5 7 2 6 9 8 9 8 8 10 12 10 6 4 6 5 3 3 3 4 4 1 1 0 3 2 3 3 8 6 7 12 14 13 14 19 24 26 26 26 25 24 21 22 27 30 29 29 29 29 29 28 27 26 27 26 24 24 22 21 22 22 21 21 20 19 18 17 17 16 16 17 17 16 14 12 11 11 12 10 9 9 8 8 8 8
6 5 4 5 7 6 7 8 8 9 10 9 7 7 7 6 6 5 5 5 3 2 2 2 0 1 3 3 7 12 13 11 13 14 13 18 23 23 25 25 25 25 26 26 29 30 30 29 29 29 28 28 28 26 27 26 23 23 22 21 21 21 20 20 19 19 18 16 16 16 15 15 16 17 16 15 13 12 11 10 10 10 10 10 9 9
3 3 5 4 5 6 7 9 10 12 10 10 9 8 7 6 8 7 6 6 5 3 3 3 1 1 2 3 2 9 11 4 10 13 14 17 19 21 22 22 24 26 28 30 27 25 27 25 24 28 27 26 26 25 26 26 24 23 21 21 21 19 19 20 19 18 18 16 15 15 15 15 15 15 15 15 14 12 11 11 12 12 11 11 11 10
6 3 5 7 6 8 12 8 13 14 14 13 12 10 8 7 7 7 6 5 5 4 4 3 2 2 1 4 1 1 5 6 8 12 13 16 18 19 19 20 24 23 19 20 18 19 24 20 19 26 26 21 23 25 25 22 22 25 23 21 22 20 19 19 19 18 18 18 16 16 16 15 15 15 14 14 14 13 12 12 12 12 12 11 11 11
6 3 3 7 9 10 16 11 12 14 14 13 12 12 10 9 9 8 6 4 3 3 2 0 0 1 1 1 4 8 7 2 10 13 15 16 17 18 18 21 25 19 13 14 14 18 22 17 16 23 24 22 22 24 24 19 18 23 24 22 22 21 20 19 19 19 18 18 18 17 17 16 15 15 15 14 14 13 13 13 12 12 12 11 11 11
3 3 2 5 7 6 8 8 9 12 9 9 9 12 13 12 13 11 9 3 3 3 3 2 1 3 2 1 7 12 6 7 5 10 14 14 16 18 20 25 25 17 15 17 16 18 21 18 18 22 24 25 23 21 21 18 16 19 21 21 21 20 20 19 19 20 19 19 18 16 16 16 15 15 14 14 15 14 13 13 13 13 13 13 12 12
3 3 3 4 6 6 4 3 3 4 7 8 11 13 16 15 15 12 8 5 4 4 5 3 3 7 7 5 8 12 6 2 4 5 9 12 16 17 19 24 23 18 18 19 20 21 21 20 21 21 21 25 25 22 19 19 19 19 19 19 19 16 17 19 19 20 20 20 19 17 16 15 15 15 15 15 16 16 14 13 13 14 14 14 13 13
5 4 4 6 8 9 7 8 11 11 7 9 12 15 13 15 14 11 9 6 3 3 3 1 6 10 8 8 9 8 7 6 3 3 4 8 15 17 20 25 26 24 21 20 23 24 22 21 22 20 19 22 24 22 20 21 22 22 19 18 17 15 16 19 19 19 20 19 18 18 18 17 16 15 14 15 17 17 17 15 14 14 14 14 14 14
5 5 5 8 10 12 13 13 15 15 12 7 9 14 15 12 14 12 13 6 1 1 2 3 9 11 6 8 10 5 2 6 5 2 5 4 11 15 19 25 27 27 25 23 25 26 23 22 22 21 21 22 21 19 19 20 21 20 17 16 17 17 18 18 19 18 19 18 17 18 18 17 16 16 16 16 17 18 19 19 18 15 13 13 14 14
5 4 6 9 10 12 13 14 15 14 12 13 11 14 16 14 12 14 16 12 6 2 6 9 13 13 5 6 11 7 5 6 6 3 2 2 8 13 17 22 25 25 25 26 27 27 26 26 26 24 21 19 20 20 18 18 17 16 15 14 15 17 16 16 17 17 17 18 18 19 18 18 17 17 18 17 17 18 18 19 21 20 16 14 14 14
3 4 6 9 9 11 12 13 16 14 12 16 16 13 13 15 15 16 16 15 13 6 14 18 16 15 6 5 10 11 12 11 7 5 5 3 2 9 15 20 21 23 23 23 24 25 25 24 23 23 18 16 20 20 17 16 17 17 18 16 14 14 13 14 15 16 17 16 16 17 18 19 19 19 20 20 20 20 18 18 19 21 21 20 18 17
1 3 5 7 7 9 12 13 14 16 16 16 13 8 8 9 10 12 11 10 10 5 13 20 16 12 7 6 9 11 13 12 9 8 8 2 2 3 9 14 14 16 18 19 20 19 19 17 15 15 13 12 15 17 16 16 18 19 20 20 17 16 17 16 14 14 16 17 16 16 17 18 20 21 22 22 22 22 21 20 19 20 21 22 21 21
2 3 5 6 5 8 9 7 9 11 10 5 9 15 17 15 15 14 9 6 7 4 7 14 11 7 6 8 9 9 10 10 9 8 8 6 4 4 9 14 15 14 14 15 16 16 15 14 12 11 11 9 9 11 11 12 14 15 15 16 17 16 17 17 16 15 15 16 15 14 15 15 17 19 21 22 23 23 23 22 22 21 22 22 22 22
3 4 4 2 3 8 6 7 14 11 2 5 9 14 14 13 13 15 15 17 17 11 2 5 6 6 8 8 8 8 8 8 7 6 7 11 11 9 11 15 15 14 14 15 15 15 15 14 13 12 11 10 9 9 11 11 12 12 11 11 12 13 15 17 19 19 19 19 16 15 15 15 16 17 20 21 22 22 23 23 23 23 23 23 23 23
4 4 3 1 1 7 7 4 6 5 1 2 6 8 10 13 15 15 16 17 17 14 9 6 5 5 6 7 9 9 9 10 12 12 12 14 15 14 13 13 12 13 14 16 16 15 15 14 12 12 11 10 7 7 11 13 12 11 11 10 10 11 12 13 15 17 18 20 18 17 17 17 16 16 17 20 23 23 24 24 24 25 25 26 26 26
3 2 3 3 3 4 5 5 3 2 1 3 5 7 6 10 13 14 16 17 16 14 11 8 5 4 9 14 15 14 14 15 17 17 16 15 15 15 13 11 14 16 15 15 15 14 13 11 10 9 8 8 6 5 7 9 9 8 9 9 9 10 10 11 12 13 14 15 16 16 16 17 17 15 14 15 18 21 23 25 26 27 27 27 28 28
3 1 0 3 4 4 2 2 2 1 2 2 5 5 4 6 10 12 13 13 13 12 10 7 4 5 13 16 14 16 19 20 20 18 16 15 16 15 13 14 17 17 16 15 15 15 14 11 8 6 7 7 5 4 4 5 4 5 5 6 7 8 9 10 11 12 13 14 14 15 17 18 18 17 16 16 17 18 20 22 24 25 26 26 26 27
3 0 1 1 4 5 1 2 1 1 2 2 3 5 4 3 6 9 7 8 11 10 8 6 6 4 10 13 12 15 20 20 18 17 16 17 17 17 17 18 20 19 17 16 16 16 16 14 12 10 9 9 8 7 7 7 4 3 4 4 4 4 5 5 6 8 9 12 14 14 16 16 16 17 18 19 19 19 20 21 22 22 22 23 23 24
3 3 2 2 2 2 0 2 3 2 2 2 2 5 6 6 4 7 8 7 9 8 9 8 6 8 4 7 12 14 15 14 11 11 15 18 18 19 20 19 18 18 17 15 14 13 14 15 15 13 12 13 13 12 12 11 10 8 6 4 3 2 1 1 2 3 5 9 10 10 11 11 13 14 15 17 18 17 16 18 20 20 20 20 21 23
4 5 3 3 2 2 1 1 2 2 2 2 4 5 5 6 6 2 3 6 7 8 11 9 3 5 7 5 4 6 8 8 5 6 12 16 16 17 18 17 17 17 17 15 13 13 14 16 16 14 12 11 11 12 12 12 11 10 10 10 8 7 7 6 5 5 6 7 7 7 7 7 8 9 9 9 10 9 8 9 13 16 17 19 21 22
6 4 4 4 3 3 3 2 0 1 2 3 6 6 6 7 8 6 3 4 6 9 12 10 6 6 6 5 7 7 3 4 5 6 9 12 13 14 15 15 16 17 16 15 14 14 15 16 16 14 12 9 9 10 10 10 9 10 11 10 9 9 9 8 7 6 6 6 6 7 8 8 8 6 4 2 2 1 1 1 3 7 9 13 17 18
4 3 4 5 3 3 4 3 2 0 4 7 8 9 9 8 6 2 3 2 5 8 12 12 9 7 6 7 6 3 2 5 9 10 10 11 12 13 13 13 13 14 15 17 17 16 15 15 14 14 14 13 12 11 10 10 11 11 12 12 10 10 9 8 7 7 6 5 5 5 6 6 6 6 5 4 5 6 7 7 4 2 4 6 8 10
2 1 1 1 2 1 2 3 3 1 5 10 10 9 12 7 0 3 3 3 5 8 11 13 10 7 7 8 8 8 10 12 13 12 11 12 12 13 13 13 13 13 14 16 17 15 13 14 13 13 14 13 12 10 9 9 10 11 12 13 13 12 11 9 8 8 7 6 5 4 3 3 4 7 8 9 11 10 8 8 6 3 2 2 3 5
1 2 3 2 2 2 3 3 3 1 4 9 8 6 9 5 5 5 4 6 8 9 10 11 9 8 8 10 12 14 15 15 14 12 11 11 10 12 14 12 10 11 13 13 14 13 13 14 13 13 12 11 10 10 10 10 10 10 11 11 11 11 11 10 10 10 9 8 8 8 7 6 6 6 6 7 10 10 9 8 7 4 4 4 3 3
2 2 2 2 3 2 1 2 3 2 4 8 5 4 7 8 7 6 6 9 9 9 9 10 9 9 9 11 13 14 14 14 13 12 11 9 8 10 14 14 12 11 12 12 12 12 12 12 12 12 11 8 8 10 10 10 10 10 10 10 10 10 11 10 10 9 9 8 9 9 9 8 7 7 6 6 7 7 6 6 6 5 6 7 6 7
2 1 4 5 5 4 3 4 6 7 7 11 12 11 10 11 11 10 10 11 10 10 9 8 9 9 8 9 11 12 12 12 11 10 10 10 9 10 12 14 14 13 12 12 13 13 12 11 11 11 9 8 8 10 10 10 10 10 10 10 9 9 10 10 10 10 9 8 9 9 10 9 8 7 7 8 8 6 4 4 3 5 7 8 8 9
2 5 6 5 7 9 8 8 9 10 10 11 12 12 11 12 12 12 13 13 12 11 10 9 9 9 8 7 8 8 8 9 9 9 9 10 11 11 11 12 13 14 14 13 12 11 10 10 10 10 9 9 9 9 10 10 9 10 11 10 9 9 9 9 9 9 9 9 8 9 8 6 7 9 10 10 11 9 6 5 4 2 5 7 7 8
5 5 5 6 8 7 6 7 9 10 10 10 10 11 11 12 12 11 11 12 11 11 11 10 9 9 8 7 7 7 7 7 7 8 8 8 9 10 9 10 12 13 14 13 11 10 9 10 10 10 10 10 9 7 8 8 9 10 11 10 8 8 9 10 9 9 10 10 8 8 8 6 7 10 9 7 9 8 6 7 7 2 3 6 5 5
4 2 2 6 7 5 6 9 10 9 9 9 10 10 10 10 10 10 11 11 11 11 11 10 10 9 8 7 6 7 8 8 8 9 8 8 8 8 7 8 10 11 12 13 12 10 10 11 11 10 10 10 8 6 6 7 8 10 10 7 6 7 9 9 8 7 8 8 6 6 7 7 7 8 5 3 2 2 2 5 5 1 3 3 4 5
2 2 3 7 7 6 8 10 9 8 8 9 10 10 10 9 9 9 9 10 10 10 10 10 11 10 10 9 8 7 7 9 9 8 8 8 8 8 8 8 9 10 11 12 11 10 10 11 10 9 8 7 6 6 6 6 6 8 8 7 6 7 8 9 9 8 6 5 4 5 6 4 1 3 5 4 2 4 5 4 4 5 4 3 2 5
3 1 3 4 4 4 7 9 7 4 6 9 10 9 8 8 8 8 8 9 9 9 9 10 10 10 10 10 9 8 8 8 7 6 8 9 9 8 8 8 8 8 9 10 11 10 11 11 9 7 6 6 5 6 6 6 6 6 6 5 6 7 6 8 10 8 5 6 6 5 5 3 3 4 5 5 3 5 7 8 10 11 10 8 7 7
3 6 5 3 4 6 9 9 6 5 9 11 10 8 8 7 7 7 7 7 8 8 8 8 9 9 9 9 9 9 8 6 5 4 7 10 9 8 7 7 7 8 9 10 11 11 11 11 10 8 6 5 4 4 4 5 7 6 3 2 4 5 5 7 9 6 2 5 5 4 4 4 3 2 3 5 6 6 7 6 6 8 9 9 9 9
Wind_Direction
207 211 219 218 227 227 217 230 232 176 143 140 157 198 151 139 130 161 176 174 173 157 179 179 144 148 153 160 166 163 173 176 173 177 174 169 164 167 171 163 165 171 164 163 164 162 160 158 156 154 155 155 153 155 153 151 152 150 150 152 151 155 157 149 141 138 137 142 150 152 154 153 145 162 186 169 156 162 171 171 161 157 153 152 152 151
206 224 229 218 226 233 230 231 222 206 196 150 141 152 134 130 127 162 182 171 187 180 173 188 156 149 153 162 168 165 174 178 176 179 178 173 170 174 173 163 166 171 165 164 166 165 163 162 160 158 160 158 157 158 157 157 156 156 155 152 154 161 158 150 145 140 142 156 164 160 159 156 154 168 179 163 156 155 166 175 162 159 158 154 155 148
201 231 235 228 228 235 243 237 207 213 221 143 124 140 130 101 100 125 199 174 179 194 162 177 161 138 137 158 167 176 179 178 179 181 181 177 175 181 174 163 168 171 167 167 169 169 167 166 163 161 164 162 162 161 161 163 160 159 161 159 161 163 158 154 150 146 149 162 171 163 155 151 158 166 163 162 160 147 159 176 165 162 161 156 156 150
203 224 229 236 234 226 243 242 199 218 227 134 131 137 128 151 113 99 224 178 139 348 150 147 133 84 357 360 69 199 183 156 193 193 194 184 177 186 178 166 173 173 169 172 172 172 169 169 167 165 167 165 165 165 164 167 163 164 168 165 163 161 161 160 154 152 159 166 169 161 148 146 160 167 163 170 159 145 163 177 170 168 163 159 157 150
228 217 211 231 239 225 237 236 192 215 227 144 144 145 143 144 106 155 194 158 117 56 130 121 97 50 277 278 285 235 186 90 201 225 266 208 181 190 183 170 180 177 171 176 175 175 173 171 171 168 170 169 168 169 168 170 167 169 173 168 165 165 166 165 162 162 169 175 172 158 147 152 164 165 162 171 170 167 174 175 176 178 167 162 165 158
240 233 208 210 228 226 234 231 178 200 235 179 143 147 154 134 104 165 159 139 136 153 158 157 137 144 222 216 223 227 186 164 177 182 264 232 187 193 189 173 184 181 174 178 177 178 176 173 173 172 173 172 172 173 172 173 171 172 175 172 168 169 168 169 172 170 171 178 175 162 151 151 156 155 156 169 175 174 172 172 183 183 168 166 176 172
246 252 228 211 227 217 215 218 174 198 247 210 135 140 146 131 127 160 157 144 163 148 184 199 163 126 209 223 219 219 198 184 175 179 225 239 202 201 195 179 185 184 178 182 181 180 180 175 175 175 177 177 175 176 175 174 173 175 178 176 172 170 171 173 174 172 169 171 173 171 161 151 151 155 165 175 171 167 168 174 188 187 170 172 176 175
236 248 232 228 242 210 195 210 182 208 246 122 143 146 140 137 140 159 171 174 167 129 164 209 222 140 193 214 204 200 201 195 194 194 210 222 216 213 202 185 186 187 182 183 185 183 181 178 178 179 181 181 178 176 176 175 175 179 181 179 175 171 171 176 176 173 169 166 169 172 164 158 161 163 168 167 165 172 170 167 178 184 172 174 175 177
214 241 225 227 248 190 189 212 190 211 223 132 183 165 143 147 148 161 178 172 162 146 156 188 200 190 177 185 183 186 200 203 201 200 198 202 207 218 218 198 187 188 186 185 189 187 182 180 181 181 182 182 180 177 177 177 175 177 182 179 176 172 173 179 180 176 172 168 172 169 161 167 172 170 166 156 159 169 160 156 169 183 181 180 187 191
203 223 191 241 258 204 219 222 199 207 201 136 233 244 157 154 151 167 183 154 159 184 188 184 185 196 176 166 171 182 202 205 201 198 193 195 197 207 219 211 192 188 189 189 190 188 184 183 182 182 184 184 182 179 176 176 176 178 182 179 176 176 178 183 181 177 174 170 176 169 163 175 170 162 172 171 171 173 165 168 176 184 189 186 194 201
272 199 179 213 233 229 243 238 196 186 182 96 219 249 220 178 167 172 168 132 155 208 211 189 186 195 218 176 180 192 209 201 192 190 188 193 195 199 211 211 195 190 191 189 189 189 186 185 184 183 185 185 182 179 176 175 175 177 179 179 179 178 179 185 181 179 177 172 179 176 170 181 170 156 177 185 185 186 184 189 189 190 193 185 190 195
264 198 163 218 230 230 244 232 165 156 173 167 210 233 241 213 189 166 133 138 193 215 223 195 189 199 224 218 201 209 214 196 187 190 188 191 197 200 207 207 196 193 192 189 187 187 186 187 186 184 185 186 183 179 177 176 175 177 178 180 181 177 178 186 184 182 183 177 181 183 178 186 181 171 182 185 185 187 187 191 192 190 184 183 188 186
234 193 130 229 232 226 241 219 151 155 185 183 215 230 232 215 201 218 178 191 224 201 341 163 170 197 242 279 228 216 213 199 191 194 187 187 194 198 204 204 197 194 192 189 188 185 187 188 186 185 185 185 183 180 178 177 175 180 184 182 182 179 180 189 187 184 186 182 183 185 182 188 189 184 185 185 184 179 178 185 189 186 185 191 192 184
215 214 173 220 224 217 241 228 150 179 210 203 220 218 217 209 205 232 209 203 252 121 48 44 116 191 284 291 250 214 202 202 196 194 189 186 190 195 200 203 199 196 191 189 189 187 187 188 186 186 185 183 183 181 180 179 177 180 186 184 183 181 182 187 187 186 188 185 187 185 183 189 191 190 184 175 178 180 182 189 190 187 186 192 192 187
206 220 196 207 205 196 228 240 185 191 206 214 231 221 221 215 200 247 201 158 273 124 110 153 176 245 234 258 276 226 199 209 200 193 190 185 188 191 197 205 200 195 192 189 189 189 188 188 187 186 183 182 184 183 182 183 181 181 185 186 184 182 183 185 186 188 190 188 189 188 186 189 189 192 187 174 180 190 189 192 192 188 180 178 189 185
226 230 186 185 193 182 202 235 223 211 209 204 221 225 221 204 193 252 149 148 245 229 137 180 190 221 210 215 303 317 279 229 192 182 182 180 186 188 192 203 201 194 193 189 187 189 188 187 187 184 181 182 185 184 183 184 181 180 186 187 185 184 184 185 185 187 190 190 191 191 190 192 190 194 193 182 186 194 192 198 197 190 189 191 196 191
258 270 206 176 187 178 190 226 230 222 226 173 206 228 216 190 202 251 190 168 228 256 168 170 157 168 191 175 210 291 318 294 182 179 183 180 183 187 191 198 199 195 195 192 188 189 187 186 186 183 181 182 184 184 184 186 183 182 188 188 186 186 183 185 186 186 189 190 192 195 192 192 193 196 198 191 192 196 193 200 201 191 198 207 210 202
293 288 246 166 183 177 185 221 225 222 238 180 196 227 206 193 203 253 263 211 227 254 200 163 136 156 191 160 164 168 217 289 229 189 185 181 180 185 191 196 197 196 195 195 192 189 186 187 186 183 182 182 183 183 183 186 184 184 190 189 187 187 184 186 188 186 189 190 192 197 193 193 197 198 202 200 200 201 194 198 205 200 202 214 222 212
302 289 222 160 193 177 173 216 225 224 241 239 232 241 210 214 203 189 248 248 230 253 229 149 122 142 242 202 158 148 188 230 222 194 182 181 182 187 192 194 195 194 194 194 192 190 188 188 186 183 181 182 182 182 182 184 182 183 188 189 188 188 185 185 185 185 190 191 191 198 196 195 196 195 203 208 211 210 201 201 209 207 208 217 221 214
303 285 251 185 207 177 163 207 220 209 224 238 255 256 224 219 206 199 236 261 253 288 334 268 117 155 236 165 123 138 207 220 208 193 186 183 184 189 191 190 191 194 197 193 190 193 193 189 186 181 180 182 183 182 181 181 181 181 185 186 186 187 185 183 184 186 191 191 190 196 202 202 197 193 197 207 220 216 202 207 216 213 217 222 221 222
269 261 270 226 216 216 195 196 218 211 194 206 229 229 218 188 172 215 243 245 242 117 138 251 324 222 230 130 122 164 189 221 214 188 181 185 185 187 189 187 186 192 199 193 189 195 194 186 183 181 181 183 182 181 179 179 181 181 183 186 185 186 185 184 188 191 192 195 195 195 203 209 204 199 197 199 214 216 202 209 219 212 216 222 219 221
281 271 293 261 210 237 226 181 205 235 210 195 213 222 226 195 171 198 223 224 226 184 195 231 172 180 203 105 128 178 163 201 229 193 175 182 186 189 190 185 183 190 197 193 188 188 186 183 183 181 180 180 179 180 178 179 183 183 183 185 184 185 186 185 192 197 193 196 200 197 201 208 206 206 206 202 208 214 208 213 219 216 216 221 219 217
359 317 300 292 270 280 283 228 198 229 233 214 214 219 232 230 200 205 214 205 216 215 225 249 173 119 77 104 99 307 103 123 172 178 179 180 183 189 183 178 184 188 189 190 188 183 182 189 191 181 177 178 177 178 177 178 183 184 186 188 187 187 189 188 192 196 193 193 199 200 200 204 205 205 209 210 212 216 215 217 220 220 219 220 224 224
356 290 275 287 282 287 293 271 195 204 235 232 216 209 223 243 230 232 246 208 203 229 208 328 344 175 319 107 81 29 8 107 150 164 180 176 176 181 172 173 184 177 153 159 178 186 184 185 182 176 179 183 181 179 178 176 177 182 188 191 188 187 190 193 194 194 195 194 198 204 203 202 206 207 206 209 215 219 219 222 223 226 227 226 227 228
340 293 278 281 278 259 268 264 191 181 216 244 234 207 207 231 236 246 269 243 175 216 188 154 219 160 156 156 83 64 15 293 230 181 174 164 167 169 164 175 181 161 144 155 166 176 177 175 176 176 180 184 183 182 181 178 177 182 188 189 189 192 193 194 195 195 197 198 197 203 206 204 208 210 207 208 215 218 219 224 228 229 231 231 232 231
308 310 279 263 265 242 224 273 256 203 205 227 246 228 201 207 228 243 256 241 209 217 208 202 174 137 127 130 95 84 99 261 279 210 177 159 162 160 158 170 170 149 146 162 167 167 165 166 172 173 174 179 183 183 177 173 177 182 186 185 185 192 193 191 194 196 200 204 201 199 202 206 209 211 211 214 219 218 217 226 233 234 234 233 235 236
292 287 269 263 268 273 287 305 305 297 259 208 228 246 223 199 212 242 253 239 229 226 236 37 120 136 134 128 107 90 111 114 57 294 243 169 160 157 151 154 156 148 148 164 174 173 165 158 159 158 160 169 176 180 178 175 178 182 185 184 185 190 192 191 195 198 202 207 207 203 203 206 208 211 213 217 223 221 216 221 228 233 238 236 235 239
268 268 267 266 261 266 274 283 293 296 285 251 224 242 252 220 196 221 244 234 117 186 259 51 106 125 122 105 105 107 121 109 115 243 275 199 162 157 149 147 150 149 144 151 167 178 179 172 164 153 148 152 158 164 172 176 179 183 186 190 196 199 199 198 199 201 205 209 209 207 209 210 209 212 215 218 226 230 225 220 217 220 231 238 238 242
269 270 271 274 266 266 268 268 274 274 274 280 255 230 247 248 210 211 227 224 222 179 116 105 108 111 109 101 110 143 169 128 139 163 319 242 167 156 152 150 152 153 148 145 153 166 174 176 175 168 161 165 162 156 161 170 176 184 188 196 203 201 202 208 209 207 209 211 210 211 215 216 212 214 219 220 224 233 236 230 222 218 220 228 237 241
301 275 273 280 277 278 277 264 258 254 257 270 264 237 235 247 241 235 227 217 228 198 113 107 104 100 109 125 117 141 147 130 140 134 60 7 185 158 156 155 155 156 152 147 147 154 161 167 176 179 181 191 183 173 174 178 178 180 182 188 194 193 199 211 216 215 215 216 216 216 217 218 214 214 219 222 224 228 236 237 231 226 224 225 227 230
205 274 278 280 276 270 268 263 249 241 247 262 278 315 334 322 317 296 260 229 241 229 109 104 101 97 108 126 120 130 132 126 140 134 109 104 259 138 137 141 140 139 138 138 138 141 148 155 166 173 178 190 193 196 203 201 197 196 194 196 200 198 199 204 208 213 217 220 222 222 222 223 220 218 219 223 226 230 235 239 239 237 236 233 231 229
227 276 278 274 275 250 253 307 317 276 259 294 2 10 1 358 11 4 346 3 355 333 113 110 107 109 119 128 127 125 122 125 133 127 119 131 128 84 99 111 110 111 120 125 127 129 135 142 149 156 161 165 178 197 209 209 208 210 211 215 221 220 215 213 215 218 220 223 225 225 225 225 226 227 225 225 227 230 234 238 240 243 244 244 243 239
256 272 275 285 299 264 250 17 359 329 319 51 24 15 10 11 28 31 27 28 20 7 55 115 111 122 131 135 129 109 98 96 91 88 97 108 107 94 103 116 112 106 114 118 118 124 126 125 129 133 138 141 148 173 192 197 196 197 203 212 219 223 223 223 226 228 230 231 232 230 228 228 231 234 234 234 233 234 236 238 241 244 245 246 247 246
268 280 284 222 255 281 290 345 349 335 56 58 29 35 34 33 39 42 39 32 24 27 45 57 61 96 115 114 105 94 92 87 78 78 85 97 103 97 99 121 119 100 100 103 105 112 116 118 124 122 117 116 124 162 188 194 194 195 201 205 206 211 218 224 228 232 236 236 235 237 239 238 240 243 245 245 244 244 245 246 247 249 249 249 249 248
287 282 287 280 247 269 303 300 280 104 120 326 33 67 71 54 53 50 41 32 25 28 40 46 42 54 72 85 97 101 98 91 85 87 90 94 105 107 103 117 122 109 104 102 99 101 106 116 129 125 113 112 123 167 188 192 196 199 205 210 213 219 225 228 229 233 237 237 238 242 243 240 239 242 246 249 247 247 248 248 248 249 250 250 250 248
297 253 238 302 280 254 253 291 284 127 159 305 11 44 95 87 66 52 36 25 25 28 28 25 16 72 82 88 108 115 105 93 83 82 88 95 104 110 108 113 117 111 106 105 104 100 96 96 107 116 117 120 129 152 159 164 182 197 210 220 224 229 232 230 231 230 229 231 234 237 238 238 240 244 247 249 246 242 242 245 246 246 247 248 247 245
284 320 103 296 284 268 220 104 275 263 150 140 23 32 56 62 76 88 68 31 32 37 39 22 342 10 95 116 138 121 100 92 83 75 81 90 92 91 94 102 109 107 102 103 107 106 101 94 89 90 97 104 105 102 100 102 113 142 182 209 222 235 239 238 242 238 233 233 235 237 237 238 242 247 247 245 242 239 242 247 246 242 243 246 246 243
253 157 169 259 268 264 282 130 176 190 171 187 14 34 29 10 49 127 120 63 48 57 73 70 1 342 29 146 156 128 99 88 80 72 80 90 93 93 93 94 98 103 106 108 109 110 111 106 99 94 94 94 92 87 85 83 82 87 96 97 86 78 117 177 213 211 207 211 215 222 230 233 237 241 240 237 237 240 244 245 243 241 241 245 249 246
233 147 154 247 225 162 140 216 211 204 224 277 336 1 17 5 336 255 139 73 58 71 83 94 86 13 15 15 38 70 85 91 93 88 88 94 102 106 104 103 106 111 115 114 110 109 112 112 108 105 100 92 84 78 77 79 79 79 80 79 75 76 90 108 127 149 164 168 172 189 204 207 215 223 227 233 240 248 253 251 248 246 245 246 248 248
219 164 171 209 194 163 168 172 13 285 281 322 333 336 1 359 317 280 161 76 31 61 83 92 99 96 93 71 39 25 29 93 117 126 110 103 107 107 105 110 118 122 121 115 106 101 103 108 111 113 114 107 92 83 81 83 85 83 81 81 78 78 87 102 116 127 142 156 176 191 185 172 176 187 193 217 241 225 76 24 262 248 241 242 244 246
223 194 198 199 188 180 174 148 103 220 292 319 324 328 336 327 305 287 131 73 19 59 85 86 84 90 102 110 105 109 153 123 120 125 118 108 109 109 106 110 114 115 115 110 100 93 93 100 106 110 112 110 104 100 99 101 100 94 89 89 88 86 91 106 116 115 125 152 179 191 176 155 152 155 146 110 91 95 105 108 109 159 204 228 236 236
273 323 329 254 212 155 124 102 87 173 284 304 313 335 342 332 31 86 84 84 54 64 80 83 86 87 85 94 105 117 128 127 125 125 119 112 114 114 113 112 110 109 109 106 105 104 104 101 98 96 98 99 99 98 100 104 105 101 97 96 93 92 94 100 105 104 104 112 118 118 115 114 125 139 139 121 103 94 98 110 113 129 171 192 228 223
334 32 30 16 55 79 99 103 113 155 313 316 307 335 7 30 127 128 104 88 67 61 75 81 78 77 77 86 97 109 121 127 128 129 126 121 123 125 126 125 120 117 114 109 110 114 112 107 102 99 98 98 98 98 100 105 108 107 104 101 97 99 102 100 99 101 100 96 93 90 89 88 94 104 113 118 112 100 93 101 102 88 87 95 108 143
358 21 68 61 62 92 144 100 119 142 35 24 41 81 61 75 111 120 98 85 72 66 75 73 71 78 84 94 104 113 122 127 130 133 133 131 131 134 137 136 131 131 128 121 120 121 115 112 112 108 105 105 105 108 109 110 115 118 115 110 107 107 108 104 100 100 101 96 88 81 77 78 87 88 79 82 94 97 97 102 105 101 89 84 95 107
327 105 119 85 75 109 127 101 109 113 83 71 84 95 86 81 86 85 81 78 73 75 78 72 70 75 86 107 118 120 125 131 133 131 134 137 134 135 141 140 136 137 135 128 128 127 121 117 115 110 109 105 100 106 111 111 114 119 117 115 116 114 112 112 109 102 100 99 94 83 70 61 65 78 83 78 71 68 74 79 100 135 118 99 104 114
192 173 150 118 106 109 107 111 113 104 92 86 84 83 82 78 76 77 77 74 71 74 79 81 81 77 78 93 106 110 119 133 138 136 137 138 135 137 144 146 143 140 138 138 137 132 126 126 124 120 115 106 96 98 105 108 114 118 116 114 114 112 111 111 107 101 97 94 88 84 80 68 59 66 74 70 56 48 62 71 62 142 147 135 134 128
145 182 173 145 141 132 114 120 121 110 110 113 101 90 84 79 77 79 79 76 74 74 74 75 81 87 85 82 86 96 108 122 131 132 131 127 129 136 142 147 150 146 140 141 144 142 140 137 131 126 120 113 108 100 97 107 117 115 107 101 103 112 116 106 91 83 85 84 79 79 82 82 72 62 55 50 45 40 53 66 56 32 206 189 180 158
116 212 186 124 127 126 116 122 123 119 121 120 111 103 95 87 84 83 83 84 81 75 73 72 70 76 83 85 92 108 124 138 139 137 135 131 131 137 138 140 148 149 145 144 144 146 149 144 139 139 136 130 127 114 99 111 120 116 111 113 116 120 118 109 96 80 72 68 64 65 63 64 74 75 63 55 89 115 98 71 61 355 275 237 188 177
119 197 127 109 115 124 130 137 141 138 129 115 102 97 93 91 88 81 79 83 77 70 71 71 67 67 69 73 82 95 114 132 140 145 150 141 131 133 138 139 142 145 148 152 152 153 156 155 153 152 143 132 124 109 101 109 118 115 114 117 118 113 113 118 118 107 88 78 80 83 76 65 65 113 102 96 159 203 199 190 209 249 290 312 224 193
188 169 111 134 154 147 137 140 142 136 124 117 109 102 98 97 96 87 76 73 71 68 69 69 69 68 62 60 69 79 92 111 125 142 150 143 134 137 143 147 151 152 152 156 161 163 163 165 167 163 151 141 133 124 119 118 119 118 111 101 101 103 108 119 119 112 119 144 150 141 131 146 235 219 156 145 194 227 220 219 232 249 266 276 266 244
93 59 69 98 111 109 115 118 106 92 106 114 113 106 101 99 97 94 83 75 72 71 70 67 65 64 61 57 60 66 76 90 98 124 144 142 141 145 148 152 163 170 169 168 170 172 171 171 174 178 176 166 151 138 127 118 125 141 159 125 102 102 102 111 110 105 140 172 177 188 188 208 258 250 187 204 225 246 257 250 243 257 271 279 279 269